Location: Home
(42.5358°N, 72.7383°W)
Time: 15:41:57
(UTC-04:00)

Kosmos-337 - Pass Details

Date: 07 July 2022
Orbit: 1467 x 1552 km, 74.0° (Epoch: 18 August)

Event Time Altitude Azimuth Distance (km) Brightness Sun altitude
Rises 03:58:00 0° 322° (NW) 4,724 ? -12.5°
Reaches altitude 10° 04:03:42 10° 294° (WNW) 3,723 ? -11.8°
Maximum altitude 04:06:27 12° 276° (W) 3,577 ? -11.5°
Drops below altitude 10° 04:09:10 10° 258° (WSW) 3,700 ? -11.1°
Enters shadow 04:10:20 - 251° (WSW) 3,829 ? -11.0°
